[[{"header":{"parameterUnit":"m.s-1","parameterCategory":1,"la1":30.2991,"la2":30.254,"lo1":-89.0895,"lo2":-89.0444,"dx":0.0017,"dy":0.0017,"nx":28,"ny":28,"refTime":"2023-01-02T15:00:00:Z","depth":0,"parameterNumber":2,"parameterNumberName":"U-component_of_WINDS"},"data":[0,0,0,0,0,0,0,0,0,0,0,0,0,0,0,0,0,0,0,0,0,0,0,0,0,0,0,0,0,0,0,0,0,0,0,0,0,0,0,0,0,0,0,0,0,0,0,0,0,0,0,0,0,0,0,0,0,0,3.3297,3.3297,0,3.329,3.329,3.329,3.326,3.326,3.3259,3.3258,3.3252,3.3252,3.3253,0,0,0,0,0,0,0,0,0,0,0,0,0,3.3285,3.3285,3.3297,3.3297,3.3297,3.329,3.329,3.329,3.3261,3.326,3.3259,3.3258,3.3252,3.3252,3.3253,0,0,0,0,0,0,0,0,0,0,0,0,0,3.3285,3.3286,3.3297,3.3281,3.328,3.329,3.329,3.329,3.3261,3.326,3.3259,3.3258,3.3252,3.3252,3.3253,3.3278,0,0,3.3255,3.3255,0,0,0,0,0,0,0,0,3.3285,3.3286,3.3284,3.3282,3.3281,3.3275,3.3283,3.3286,3.3261,3.3268,3.3258,3.3257,3.326,3.326,3.3261,3.3278,3.3277,3.3255,3.3256,3.3256,3.3256,0,0,0,0,0,0,0,3.3285,3.3286,3.3294,3.3284,3.3282,3.3275,3.3274,3.3284,3.327,3.3267,3.3265,3.3265,3.3259,3.3261,3.3261,3.3277,3.3255,3.3256,3.3256,3.3256,3.3314,3.3315,0,0,0,0,0,0,3.3288,3.3286,3.3294,3.3294,3.3281,3.3276,3.3275,3.3278,3.327,3.3268,3.3266,3.3263,3.326,3.326,3.3261,3.3289,3.3256,3.3256,3.3257,3.3313,3.3314,3.3315,0,0,0,0,0,0,3.3287,3.3289,3.3295,3.3289,3.329,3.3277,3.3281,3.3278,3.3279,3.3269,3.3266,3.3269,3.3259,3.326,3.3274,3.3288,3.3257,3.3257,3.3311,3.3313,3.3314,3.3346,0,0,0,0,0,0,3.3287,3.3289,3.3298,3.329,3.329,3.3308,3.3282,3.3279,3.3281,3.3278,3.3271,3.3269,3.3258,3.3273,3.3274,3.3289,3.3258,3.331,3.3312,3.3314,3.3344,3.3349,3.3353,0,0,0,0,0,3.3287,3.3307,3.3298,3.3299,3.3301,3.3309,3.3309,3.3295,3.3282,3.3291,3.3284,3.327,3.3287,3.3275,3.3276,3.3291,3.3309,3.3311,3.3314,3.3342,3.3348,3.3353,0,0,0,0,0,0,3.3317,3.3306,3.3296,3.3314,3.3313,3.3304,3.3314,3.3302,3.3305,3.3302,3.3286,3.3284,3.3301,3.3297,3.3284,3.3315,3.3295,3.3298,3.3316,3.3322,3.3326,3.3326,3.3259,0,0,0,0,0,3.3326,3.3332,3.3322,3.3339,3.3339,3.3327,3.333,3.332,3.3318,3.3317,3.3311,3.3309,3.3315,3.3318,3.3322,3.3344,3.3342,3.3355,3.3359,3.3363,3.3365,3.3377,3.3382,3.3323,3.3323,3.3323,0,0,3.3343,3.3338,3.3343,3.3345,3.3343,3.335,3.3327,3.3336,3.3341,3.3318,3.3331,3.3327,3.3324,3.3342,3.335,3.334,3.3382,3.3366,3.3369,3.337,3.338,3.3385,3.339,3.3325,3.3325,3.3324,0,0,3.338,3.3377,3.339,3.3389,3.3386,3.3378,3.3381,3.3374,3.3371,3.3383,3.3366,3.3373,3.3382,3.3381,3.3381,3.3419,3.3405,3.342,3.3444,3.3455,3.346,3.3464,3.3477,3.3481,3.3423,3.3423,3.3423,0,3.3402,3.3413,3.3399,3.3409,3.341,3.3391,3.3404,3.3404,3.3402,3.3403,3.3392,3.3404,3.34,3.3418,3.3427,3.3428,3.3432,3.342,3.346,3.3464,3.3468,3.348,3.3485,3.3425,3.3425,3.3425,3.3424,0,3.3441,3.3448,3.346,3.3459,3.3462,3.3474,3.3462,3.3467,3.3457,3.345,3.3464,3.346,3.3462,3.3466,3.3457,3.3482,3.3476,3.3463,3.3443,3.3475,3.3486,3.3491,3.3428,3.3427,3.3426,3.3426,0,0,3.3494,3.3486,3.3491,3.349,3.3486,3.3491,3.3503,3.3506,3.351,3.351,3.3519,3.3528,3.3516,3.3516,3.3507,3.3517,3.3546,3.3502,3.3502,3.351,3.3574,3.3583,3.3589,3.3538,3.3538,3.3539,3.3574,0,3.3529,3.3547,3.3536,3.3556,3.3563,3.3545,3.3555,3.3554,3.3548,3.3553,3.3547,3.3554,3.3537,3.3538,3.3547,3.3541,3.3559,3.3538,3.3546,3.3546,3.3546,3.3594,3.3604,3.3637,3.3578,3.3579,3.3579,0,3.3571,3.3572,3.3594,3.3588,3.3591,3.36,3.3602,3.3607,3.3606,3.3601,3.3602,3.3591,3.3602,3.3583,3.3598,3.3584,3.3587,3.3585,3.3586,3.3585,3.3564,3.3594,3.3647,3.3652,3.3586,3.3586,3.3585,0,3.3607,3.3615,3.3629,3.3629,3.3623,3.363,3.3628,3.3625,3.3628,3.363,3.3631,3.3635,3.3636,3.3639,3.3629,3.3616,3.3645,3.3626,3.3642,3.3642,3.3647,3.3647,3.37,3.3651,3.3651,3.3651,3.3651,0,3.3646,3.3659,3.3645,3.3653,3.3668,3.3655,3.367,3.3666,3.3664,3.3672,3.3657,3.3664,3.365,3.3656,3.3649,3.3662,3.3663,3.366,3.3657,3.366,3.3661,3.3661,3.3658,3.3652,3.3652,3.3651,3.3651,0,3.3688,3.3679,3.3693,3.3687,3.3685,3.3697,3.3691,3.3699,3.3693,3.3702,3.3704,3.3695,3.3701,3.3691,3.3697,3.3691,3.371,3.3704,3.371,3.3708,3.3724,3.3723,3.3779,3.3786,3.3733,3.3733,3.3734,0,3.3713,3.3723,3.3718,3.3722,3.3721,3.3727,3.373,3.3718,3.3722,3.3721,3.3729,3.3734,3.3737,3.3749,3.3742,3.3746,3.374,3.376,3.3741,3.3744,3.374,3.3739,3.374,3.3763,3.3764,3.3765,3.3765,0,3.3758,3.3753,3.3757,3.3761,3.3764,3.3766,3.3767,3.3771,3.3759,3.3764,3.377,3.3773,3.3779,3.3784,3.3787,3.3785,3.3773,3.3771,3.3775,3.3778,3.3781,3.3779,3.372,3.377,3.3769,3.3769,3.3769,3.3769,3.3791,3.3799,3.3797,3.3803,3.3803,3.3804,3.3811,3.3806,3.3811,3.3815,3.3808,3.3816,3.3815,3.3817,3.3817,3.3823,3.3814,3.382,3.3821,3.3823,3.3825,3.3781,3.3824,3.3823,3.3823,3.3823,3.3823,0,3.3835,3.3833,3.3838,3.384,3.3845,3.3834,3.3834,3.3839,3.3846,3.3846,3.385,3.3858,3.3863,3.3858,3.3862,3.3868,3.3863,3.387,3.3869,3.3868,3.3833,3.3828,3.3874,3.3874,3.3874,3.3874,3.3874,3.3874,3.3858,3.3871,3.3866,3.3879,3.3877,3.3885,3.3886,3.3888,3.3887,3.3897,3.3901,3.3898,3.3895,3.39,3.3904,3.3902,3.3904,3.3913,3.3909,3.3876,3.3871,3.3866,3.3862,3.3914,3.3914,3.3944,3.3945,3.3945]},{"header":{"parameterUnit":"m.s-1","parameterCategory":1,"la1":30.2991,"la2":30.254,"lo1":-89.0895,"lo2":-89.0444,"dx":0.0017,"dy":0.0017,"nx":28,"ny":28,"refTime":"2023-01-02T15:00:00:Z","depth":0,"parameterNumber":3,"parameterNumberName":"V-component_of_WINDS"},"data":[0,0,0,0,0,0,0,0,0,0,0,0,0,0,0,0,0,0,0,0,0,0,0,0,0,0,0,0,0,0,0,0,0,0,0,0,0,0,0,0,0,0,0,0,0,0,0,0,0,0,0,0,0,0,0,0,0,0,3.4521,3.4522,0,3.4645,3.4646,3.4647,3.4653,3.4651,3.465,3.4648,3.4774,3.4779,3.4784,0,0,0,0,0,0,0,0,0,0,0,0,0,3.4286,3.429,3.452,3.4522,3.4524,3.4644,3.4646,3.4648,3.4653,3.4651,3.4649,3.4648,3.4773,3.4778,3.4784,0,0,0,0,0,0,0,0,0,0,0,0,0,3.4397,3.4292,3.452,3.4541,3.4544,3.4644,3.4646,3.4648,3.4653,3.4651,3.4649,3.4647,3.4771,3.4778,3.4785,3.4873,0,0,3.4806,3.4809,0,0,0,0,0,0,0,0,3.4391,3.4405,3.4536,3.4539,3.4543,3.4631,3.461,3.4723,3.4654,3.4612,3.4648,3.4646,3.4728,3.4739,3.4767,3.4878,3.4884,3.4807,3.4811,3.4814,3.4816,0,0,0,0,0,0,0,3.4383,3.44,3.4569,3.4538,3.4542,3.4543,3.4556,3.4631,3.4681,3.4615,3.4616,3.4631,3.473,3.476,3.477,3.4886,3.4807,3.4813,3.4818,3.482,3.5076,3.5078,0,0,0,0,0,0,3.4371,3.4394,3.4566,3.4573,3.446,3.4549,3.4564,3.4605,3.468,3.4689,3.4632,3.463,3.4749,3.4762,3.4774,3.4883,3.4814,3.4821,3.4825,3.5074,3.5077,3.5079,0,0,0,0,0,0,3.4366,3.4387,3.4561,3.4484,3.4506,3.4556,3.4601,3.4609,3.4639,3.4693,3.4702,3.4654,3.4748,3.4764,3.4848,3.4888,3.4824,3.4831,3.5071,3.5074,3.5078,3.5101,0,0,0,0,0,0,3.436,3.4385,3.4419,3.4484,3.451,3.4633,3.4604,3.4613,3.4651,3.465,3.4716,3.4725,3.4747,3.4838,3.4855,3.4896,3.4836,3.5067,3.5072,3.5077,3.5097,3.5105,3.5112,0,0,0,0,0,3.4351,3.442,3.4421,3.4442,3.4554,3.4635,3.465,3.4675,3.4654,3.4689,3.4724,3.4723,3.488,3.4846,3.4866,3.491,3.5065,3.5071,3.5076,3.5094,3.5104,3.5112,0,0,0,0,0,0,3.4358,3.4429,3.4431,3.4523,3.4573,3.4636,3.4681,3.4684,3.4741,3.4738,3.4765,3.478,3.4864,3.4895,3.4856,3.4999,3.497,3.498,3.4976,3.4986,3.4993,3.4985,3.4842,0,0,0,0,0,3.437,3.4431,3.4489,3.4565,3.459,3.4631,3.4667,3.4682,3.4735,3.4756,3.4797,3.4848,3.4909,3.4949,3.5008,3.51,3.5116,3.514,3.5148,3.5153,3.5163,3.5215,3.5227,3.5098,3.5098,3.5098,0,0,3.4396,3.4442,3.4479,3.4568,3.4608,3.467,3.4649,3.4715,3.4762,3.4766,3.4849,3.488,3.4939,3.5028,3.5069,3.5056,3.5201,3.5161,3.5165,3.5171,3.5222,3.5234,3.5245,3.5102,3.5101,3.5101,0,0,3.4476,3.4516,3.4585,3.4626,3.4688,3.4714,3.473,3.4793,3.4814,3.4897,3.4902,3.4957,3.5061,3.5103,3.5138,3.5233,3.5234,3.5251,3.5291,3.5342,3.5352,3.5361,3.5397,3.5409,3.5259,3.5259,3.5259,0,3.45,3.4595,3.4619,3.4686,3.4725,3.4732,3.4801,3.4839,3.4917,3.4944,3.4928,3.5059,3.5099,3.5199,3.5222,3.5249,3.5269,3.5245,3.5349,3.5358,3.5367,3.5401,3.5414,3.5261,3.5261,3.5261,3.526,0,3.4623,3.4688,3.4735,3.4811,3.4855,3.4922,3.4957,3.4998,3.5009,3.5037,3.5121,3.5169,3.5238,3.5262,3.5273,3.5364,3.5354,3.5343,3.5315,3.5381,3.5414,3.5427,3.5264,3.5263,3.5262,3.5262,0,0,3.4712,3.48,3.4817,3.4852,3.492,3.4971,3.5038,3.5107,3.5142,3.5195,3.5253,3.534,3.5331,3.537,3.5385,3.5429,3.5503,3.5413,3.5415,3.543,3.5608,3.5618,3.5632,3.5503,3.5506,3.5508,3.5604,0,3.4801,3.4923,3.4946,3.5052,3.5113,3.5119,3.5178,3.5226,3.5254,3.5309,3.5339,3.5401,3.5383,3.5407,3.5451,3.5485,3.554,3.5478,3.5559,3.5561,3.5547,3.5649,3.566,3.5748,3.5616,3.5618,3.562,0,3.4921,3.4978,3.509,3.5151,3.5177,3.523,3.5294,3.5347,3.5401,3.5418,3.5462,3.5472,3.5542,3.5509,3.5606,3.5564,3.5598,3.5619,3.5623,3.5634,3.5597,3.5665,3.5776,3.5791,3.564,3.5638,3.5637,0,3.4978,3.5082,3.5163,3.5192,3.5264,3.5301,3.5333,3.5385,3.5424,3.548,3.5506,3.5569,3.5604,3.5652,3.5679,3.5652,3.5775,3.5743,3.5792,3.5791,3.582,3.5818,3.5941,3.5837,3.5837,3.5837,3.5836,0,3.5076,3.5145,3.5189,3.5239,3.5316,3.5342,3.5417,3.5448,3.5494,3.555,3.5558,3.5611,3.5641,3.5698,3.5719,3.5797,3.5812,3.5828,3.5834,3.5829,3.5828,3.5854,3.585,3.584,3.584,3.5839,3.5838,0,3.5154,3.5186,3.5275,3.5336,3.5352,3.5407,3.5459,3.5507,3.5534,3.5605,3.5623,3.5665,3.5732,3.5763,3.5845,3.5859,3.5949,3.5949,3.5932,3.5934,3.5982,3.5978,3.6128,3.615,3.6029,3.603,3.6031,0,3.5215,3.5269,3.5335,3.5374,3.5407,3.5468,3.5509,3.5535,3.5577,3.5643,3.5684,3.5751,3.5806,3.5913,3.5951,3.6014,3.6017,3.6065,3.6026,3.6021,3.602,3.6018,3.6024,3.6073,3.6074,3.6075,3.6076,0,3.5323,3.5336,3.5395,3.5459,3.5508,3.5559,3.561,3.564,3.5675,3.5721,3.579,3.5833,3.5918,3.5985,3.605,3.6082,3.6086,3.6087,3.6102,3.61,3.6089,3.6098,3.5953,3.6084,3.6083,3.6083,3.6082,3.6082,3.5396,3.5444,3.5499,3.5564,3.5605,3.5652,3.5701,3.5734,3.5792,3.5864,3.5875,3.5949,3.6002,3.609,3.6124,3.6182,3.6171,3.6192,3.6198,3.6203,3.6208,3.6077,3.6194,3.6194,3.6193,3.6193,3.6193,0,3.5506,3.5541,3.56,3.5672,3.5723,3.572,3.5776,3.5819,3.5885,3.5933,3.5988,3.6067,3.6132,3.6175,3.6241,3.6279,3.6282,3.6295,3.6294,3.6302,3.6213,3.6194,3.6292,3.6292,3.6292,3.6292,3.6292,3.6292,3.5569,3.5651,3.567,3.5772,3.5807,3.588,3.5913,3.5956,3.5996,3.6084,3.6139,3.6166,3.6212,3.6281,3.6341,3.6352,3.6377,3.6391,3.6402,3.6318,3.6308,3.6298,3.6281,3.6396,3.6396,3.6487,3.6487,3.6488]}]]